Home > Time Zones > World Clock > Weather > India > Dausa > Past weeks

Flag for India Weather past 2 weeks in Dausa, Rajasthan, India

Now
99 °F

Duststorm.


Feels Like: 99 °F
Forecast: 83 / 109 °F
Wind: 14 mph from West

Location: Jaipur / Sanganer

Current Time: May 26, 2015 at 11:21:18 AM

Latest Report: May 26, 2015 at 10:00 AM


Visibility: 2 mi

Pressure: 29.68 "Hg

Humidity: 29%

Dew point: 61 °F

Location of DausaLocation

Historic Weather in Dausa — Graph

°F

Dausa temperature yesterday

Maximum temperature yesterday: 111 °F (at 2:00 PM)
Minimum temperature yesterday: 90 °F (at 5:00 AM)
Average temperature yesterday: 99 °F

Past Weeks' High & Low Weather Summary

 TemperatureHumidityPressure
High111 °F (May 18, 3:00 PM)62% (May 11, 10:00 PM)29.89 "Hg (May 11, 10:00 PM)
Low77 °F (May 15, 5:00 AM)6% (May 18, 5:00 PM)29.53 "Hg (May 23, 3:00 PM)
Average94 °F29%29.70 "Hg
* Reported May 11 9:00 AM — May 26 9:00 AM, Dausa, Weather by CustomWeather, © 2015

Note: Actual official high and low records may vary slightly from our data, if they occured in-between our weather recording intervals... More about our weather records

Advertising

Dausa weather history for previous 24 hours

 ConditionsComfort  
Time TempWeatherWind HumidityBarometerVisibility
9:00 AM
Tue, May 26
97 °FDuststorm.15 mph34%29.68 "Hg2 mi
8:00 AM93 °FDuststorm.14 mph44%29.68 "Hg2 mi
7:00 AM91 °FDuststorm.8 mph44%29.65 "Hg2 mi
6:00 AM91 °FDuststorm.10 mph41%29.62 "Hg2 mi
5:00 AM91 °FDuststorm.9 mph38%29.62 "Hg2 mi
4:00 AM93 °FDuststorm.10 mph32%29.62 "Hg2 mi
3:00 AM95 °FDuststorm.10 mph30%29.59 "Hg2 mi
1:00 AM97 °FDuststorm.12 mph27%29.62 "Hg2 mi
12:00 AM97 °FDuststorm.10 mph25%29.62 "Hg2 mi
11:00 PM
Mon, May 25
99 °FDuststorm.9 mph22%29.62 "Hg2 mi
10:00 PM100 °FDuststorm.10 mph18%29.62 "Hg2 mi
8:00 PM102 °FDuststorm.12 mph17%29.56 "Hg2 mi
7:00 PM104 °FDuststorm.14 mph14%29.56 "Hg3 mi
5:00 PM108 °FDuststorm.20 mph10%29.53 "Hg3 mi
3:00 PM109 °FPassing clouds.16 mph7%29.56 "Hg3 mi
2:00 PM111 °FPassing clouds.16 mph9%29.56 "Hg3 mi
1:00 PM109 °FDuststorm.17 mph10%29.59 "Hg2 mi
12:00 PM106 °FDuststorm.16 mph17%29.62 "Hg2 mi
11:00 AM104 °FHaze.13 mph20%29.62 "Hg2 mi
Weather by CustomWeather, © 2015

See weather overviewHow to use our weather pages